[[{"header":{"parameterUnit":"m.s-1","parameterCategory":1,"la1":30.2991,"la2":30.254,"lo1":-89.0895,"lo2":-89.0444,"dy":0.0017,"dx":0.0017,"nx":28,"ny":28,"refTime":"2024-03-27T03:00:00:Z","depth":0,"parameterNumber":2,"parameterNumberName":"U-component_of_WINDS"},"data":[0,0,0,0,0,0,0,0,0,0,0,0,0,0,0,0,0,0,0,0,0,0,0,0,0,0,0,0,0,0,0,0,0,0,0,0,0,0,0,0,0,0,0,0,0,0,0,0,0,0,0,0,0,0,0,0,0,0,-0.3654,-0.3653,0,-0.3628,-0.3628,-0.3627,-0.3598,-0.3597,-0.3597,-0.3597,-0.3571,-0.3571,-0.357,0,0,0,0,0,0,0,0,0,0,0,0,0,-0.3677,-0.3677,-0.3654,-0.3653,-0.3653,-0.3628,-0.3628,-0.3627,-0.3598,-0.3597,-0.3597,-0.3596,-0.3571,-0.3571,-0.357,0,0,0,0,0,0,0,0,0,0,0,0,0,-0.3661,-0.3677,-0.3654,-0.3635,-0.3634,-0.3628,-0.3628,-0.3627,-0.3598,-0.3597,-0.3597,-0.3596,-0.3571,-0.3571,-0.357,-0.3581,0,0,-0.3569,-0.3569,0,0,0,0,0,0,0,0,-0.3662,-0.366,-0.3638,-0.3637,-0.3635,-0.3615,-0.3626,-0.3612,-0.3598,-0.3612,-0.3596,-0.3596,-0.3586,-0.3585,-0.3581,-0.358,-0.3579,-0.3569,-0.3569,-0.3568,-0.3568,0,0,0,0,0,0,0,-0.3663,-0.3661,-0.3644,-0.3638,-0.3636,-0.3628,-0.3625,-0.3623,-0.3603,-0.361,-0.3608,-0.3605,-0.3585,-0.3582,-0.358,-0.3578,-0.3569,-0.3569,-0.3568,-0.3568,-0.3583,-0.3583,0,0,0,0,0,0,-0.3667,-0.3662,-0.3644,-0.3643,-0.3647,-0.3628,-0.3625,-0.3622,-0.3603,-0.3599,-0.3606,-0.3604,-0.3583,-0.3581,-0.3579,-0.359,-0.3568,-0.3568,-0.3568,-0.3582,-0.3583,-0.3583,0,0,0,0,0,0,-0.3668,-0.3666,-0.3645,-0.3652,-0.3649,-0.3629,-0.3626,-0.3622,-0.3619,-0.36,-0.3596,-0.3606,-0.3582,-0.358,-0.358,-0.3588,-0.3568,-0.3568,-0.3581,-0.3582,-0.3583,-0.3611,0,0,0,0,0,0,-0.3668,-0.3666,-0.367,-0.3652,-0.3648,-0.3647,-0.3626,-0.3622,-0.3618,-0.3615,-0.3599,-0.3596,-0.3581,-0.3581,-0.358,-0.3587,-0.3567,-0.358,-0.3582,-0.3583,-0.361,-0.3613,-0.3616,0,0,0,0,0,-0.3669,-0.368,-0.3671,-0.3669,-0.3653,-0.3648,-0.3646,-0.3629,-0.3619,-0.3622,-0.361,-0.3596,-0.3588,-0.3581,-0.358,-0.3587,-0.358,-0.3581,-0.3583,-0.3608,-0.3612,-0.3616,0,0,0,0,0,0,-0.37,-0.3677,-0.3667,-0.3671,-0.3662,-0.3643,-0.3647,-0.3634,-0.3627,-0.3625,-0.3605,-0.3601,-0.3604,-0.3596,-0.3589,-0.3596,-0.3582,-0.3583,-0.3601,-0.3605,-0.3609,-0.3611,-0.3567,0,0,0,0,0,-0.3707,-0.3704,-0.3685,-0.3691,-0.3686,-0.3668,-0.3665,-0.3652,-0.3641,-0.3637,-0.3625,-0.3615,-0.361,-0.3607,-0.3602,-0.3608,-0.3603,-0.3612,-0.3615,-0.3618,-0.362,-0.3621,-0.3625,-0.3588,-0.3588,-0.3588,0,0,-0.3722,-0.3709,-0.3709,-0.3696,-0.3687,-0.3685,-0.3664,-0.3663,-0.3661,-0.3637,-0.3637,-0.3627,-0.3614,-0.3618,-0.3618,-0.3611,-0.3628,-0.362,-0.3622,-0.3622,-0.3623,-0.3626,-0.363,-0.3589,-0.3589,-0.3589,0,0,-0.3748,-0.3738,-0.3742,-0.3733,-0.3719,-0.3706,-0.3707,-0.369,-0.3682,-0.3681,-0.3663,-0.366,-0.3652,-0.3643,-0.3638,-0.3659,-0.3646,-0.3658,-0.3675,-0.3677,-0.368,-0.3682,-0.3689,-0.3692,-0.3659,-0.3659,-0.3659,0,-0.3769,-0.3764,-0.3745,-0.3745,-0.3739,-0.3717,-0.372,-0.3712,-0.3698,-0.3694,-0.3686,-0.3674,-0.3664,-0.3664,-0.3669,-0.3666,-0.3666,-0.366,-0.3681,-0.3683,-0.3685,-0.3691,-0.3694,-0.3661,-0.3661,-0.366,-0.366,0,-0.379,-0.3787,-0.3791,-0.3777,-0.3772,-0.3773,-0.3754,-0.3751,-0.3739,-0.3727,-0.3726,-0.3713,-0.3703,-0.3702,-0.3691,-0.3701,-0.3696,-0.3685,-0.367,-0.369,-0.3696,-0.3698,-0.3663,-0.3662,-0.3662,-0.3662,0,0,-0.3836,-0.3809,-0.3811,-0.3804,-0.3786,-0.3784,-0.3783,-0.3774,-0.3772,-0.3762,-0.3761,-0.3754,-0.3742,-0.3736,-0.3723,-0.3725,-0.3741,-0.3712,-0.3712,-0.3718,-0.375,-0.3759,-0.3762,-0.3732,-0.3732,-0.3732,-0.3751,0,-0.3858,-0.3856,-0.3839,-0.3842,-0.3838,-0.3816,-0.3816,-0.3805,-0.3793,-0.3788,-0.3775,-0.377,-0.3756,-0.3752,-0.3752,-0.3739,-0.3747,-0.3737,-0.373,-0.373,-0.3734,-0.3765,-0.3774,-0.3792,-0.3753,-0.3753,-0.3753,0,-0.3885,-0.3876,-0.3879,-0.386,-0.3857,-0.3858,-0.3846,-0.3842,-0.3829,-0.382,-0.3812,-0.3797,-0.3795,-0.3781,-0.3777,-0.3771,-0.3767,-0.3759,-0.376,-0.3758,-0.3743,-0.3764,-0.3798,-0.3801,-0.3757,-0.3756,-0.3756,0,-0.3918,-0.3906,-0.3906,-0.39,-0.3878,-0.3878,-0.3869,-0.3855,-0.385,-0.384,-0.3837,-0.3827,-0.3822,-0.3814,-0.3797,-0.3788,-0.3795,-0.3779,-0.3787,-0.3788,-0.379,-0.379,-0.3823,-0.3787,-0.3787,-0.3787,-0.3787,0,-0.3945,-0.3947,-0.392,-0.392,-0.3921,-0.39,-0.3902,-0.3891,-0.3878,-0.3875,-0.3855,-0.3853,-0.383,-0.3824,-0.3811,-0.3809,-0.3807,-0.3799,-0.3796,-0.3801,-0.3802,-0.3798,-0.3797,-0.3788,-0.3788,-0.3788,-0.3788,0,-0.3982,-0.3964,-0.3962,-0.394,-0.3935,-0.3937,-0.3919,-0.3918,-0.3904,-0.39,-0.3898,-0.3877,-0.387,-0.3851,-0.3839,-0.3829,-0.3831,-0.3825,-0.3836,-0.3834,-0.3842,-0.3841,-0.3874,-0.3877,-0.384,-0.384,-0.3841,0,-0.4001,-0.4002,-0.398,-0.3976,-0.3968,-0.3962,-0.3957,-0.3936,-0.3931,-0.3914,-0.3915,-0.3905,-0.3897,-0.3886,-0.3869,-0.386,-0.3852,-0.3864,-0.3851,-0.3856,-0.3852,-0.3852,-0.3851,-0.3867,-0.3868,-0.3868,-0.3869,0,-0.4035,-0.4026,-0.4018,-0.4007,-0.4001,-0.3992,-0.3981,-0.3979,-0.3955,-0.395,-0.3942,-0.3935,-0.3922,-0.3913,-0.39,-0.389,-0.3875,-0.3873,-0.3874,-0.388,-0.3886,-0.3882,-0.3844,-0.3872,-0.3872,-0.3872,-0.3872,-0.3871,-0.4063,-0.4063,-0.4047,-0.4039,-0.4029,-0.4019,-0.4016,-0.4002,-0.3994,-0.3982,-0.397,-0.3963,-0.3948,-0.3929,-0.392,-0.3913,-0.3906,-0.3908,-0.3908,-0.3909,-0.3911,-0.3887,-0.3911,-0.3911,-0.3911,-0.3911,-0.3911,0,-0.4097,-0.4085,-0.4078,-0.4063,-0.4057,-0.4042,-0.4029,-0.4025,-0.4019,-0.4006,-0.3997,-0.3987,-0.3978,-0.396,-0.3949,-0.3947,-0.394,-0.3945,-0.3945,-0.3942,-0.3919,-0.3919,-0.3951,-0.3951,-0.3951,-0.3951,-0.3951,-0.3951,-0.4113,-0.4111,-0.41,-0.4092,-0.408,-0.4073,-0.4066,-0.4057,-0.4046,-0.4036,-0.4028,-0.4016,-0.4,-0.3988,-0.3978,-0.3973,-0.397,-0.3977,-0.3969,-0.3948,-0.3944,-0.3941,-0.394,-0.3976,-0.3976,-0.3993,-0.3993,-0.3994]},{"header":{"parameterUnit":"m.s-1","parameterCategory":1,"la1":30.2991,"la2":30.254,"lo1":-89.0895,"lo2":-89.0444,"dy":0.0017,"dx":0.0017,"nx":28,"ny":28,"refTime":"2024-03-27T03:00:00:Z","depth":0,"parameterNumber":3,"parameterNumberName":"V-component_of_WINDS"},"data":[0,0,0,0,0,0,0,0,0,0,0,0,0,0,0,0,0,0,0,0,0,0,0,0,0,0,0,0,0,0,0,0,0,0,0,0,0,0,0,0,0,0,0,0,0,0,0,0,0,0,0,0,0,0,0,0,0,0,-3.3983,-3.3984,0,-3.4063,-3.4064,-3.4064,-3.4056,-3.4055,-3.4054,-3.4053,-3.413,-3.4133,-3.4137,0,0,0,0,0,0,0,0,0,0,0,0,0,-3.3821,-3.3824,-3.3983,-3.3984,-3.3985,-3.4063,-3.4064,-3.4065,-3.4056,-3.4055,-3.4053,-3.4052,-3.4129,-3.4133,-3.4137,0,0,0,0,0,0,0,0,0,0,0,0,0,-3.3895,-3.3825,-3.3983,-3.399,-3.3992,-3.4062,-3.4064,-3.4065,-3.4057,-3.4055,-3.4053,-3.4051,-3.4128,-3.4133,-3.4137,-3.4205,0,0,-3.4152,-3.4154,0,0,0,0,0,0,0,0,-3.3891,-3.3901,-3.3988,-3.399,-3.3992,-3.4048,-3.4035,-3.4112,-3.4057,-3.4032,-3.4052,-3.405,-3.4104,-3.4111,-3.413,-3.4208,-3.4211,-3.4153,-3.4156,-3.4158,-3.4159,0,0,0,0,0,0,0,-3.3886,-3.3897,-3.4014,-3.399,-3.3992,-3.3989,-3.3997,-3.4049,-3.4077,-3.4034,-3.4034,-3.4043,-3.4105,-3.4125,-3.4131,-3.4213,-3.4153,-3.4157,-3.416,-3.4162,-3.435,-3.4352,0,0,0,0,0,0,-3.3879,-3.3893,-3.4012,-3.4017,-3.3936,-3.3993,-3.4003,-3.4032,-3.4077,-3.4082,-3.4045,-3.4043,-3.4118,-3.4126,-3.4134,-3.4216,-3.4158,-3.4162,-3.4165,-3.4348,-3.4351,-3.4353,0,0,0,0,0,0,-3.3876,-3.389,-3.4009,-3.3955,-3.397,-3.3998,-3.403,-3.4034,-3.4054,-3.4085,-3.409,-3.4061,-3.4117,-3.4127,-3.4187,-3.4218,-3.4164,-3.4169,-3.4346,-3.4349,-3.4352,-3.4379,0,0,0,0,0,0,-3.3871,-3.3889,-3.3915,-3.3956,-3.3973,-3.4062,-3.4032,-3.4037,-3.4063,-3.4061,-3.4101,-3.4106,-3.4116,-3.418,-3.4192,-3.4224,-3.4173,-3.4343,-3.4347,-3.4351,-3.4376,-3.4383,-3.4389,0,0,0,0,0,-3.3865,-3.3919,-3.3917,-3.3931,-3.4007,-3.4064,-3.4073,-3.4085,-3.4066,-3.4092,-3.4112,-3.4105,-3.4213,-3.4186,-3.42,-3.4233,-3.4341,-3.4346,-3.435,-3.4373,-3.4382,-3.4389,0,0,0,0,0,0,-3.388,-3.3924,-3.3922,-3.3991,-3.4024,-3.4062,-3.4096,-3.4094,-3.4131,-3.4128,-3.4139,-3.4148,-3.4209,-3.4227,-3.4197,-3.4301,-3.4274,-3.4282,-3.4287,-3.4295,-3.4302,-3.4296,-3.4177,0,0,0,0,0,-3.3891,-3.3935,-3.3971,-3.4028,-3.4044,-3.4067,-3.4092,-3.4099,-3.4132,-3.4146,-3.417,-3.4202,-3.4244,-3.427,-3.431,-3.4378,-3.4387,-3.4408,-3.4415,-3.442,-3.4427,-3.4464,-3.4474,-3.4368,-3.4368,-3.4368,0,0,-3.3914,-3.3944,-3.3971,-3.4031,-3.4057,-3.4101,-3.4079,-3.4126,-3.4159,-3.4153,-3.4211,-3.423,-3.4267,-3.4331,-3.4361,-3.4348,-3.4458,-3.4426,-3.443,-3.4434,-3.447,-3.448,-3.4489,-3.4372,-3.4371,-3.4371,0,0,-3.398,-3.4007,-3.4057,-3.4084,-3.4125,-3.414,-3.4152,-3.4191,-3.4204,-3.4263,-3.426,-3.4298,-3.4369,-3.4396,-3.4418,-3.4494,-3.4489,-3.4507,-3.4542,-3.4578,-3.4586,-3.4594,-3.4621,-3.463,-3.4513,-3.4513,-3.4513,0,-3.4003,-3.407,-3.4083,-3.4132,-3.4158,-3.4156,-3.4207,-3.4232,-3.4283,-3.4301,-3.4287,-3.4376,-3.4401,-3.4471,-3.449,-3.4509,-3.4522,-3.4502,-3.4584,-3.4592,-3.4599,-3.4625,-3.4635,-3.4515,-3.4515,-3.4515,-3.4514,0,-3.4097,-3.4144,-3.418,-3.4231,-3.4261,-3.431,-3.433,-3.4359,-3.4362,-3.4379,-3.4439,-3.4468,-3.4514,-3.4532,-3.4535,-3.4603,-3.4594,-3.4582,-3.4556,-3.4611,-3.4635,-3.4645,-3.4518,-3.4517,-3.4516,-3.4516,0,0,-3.4173,-3.4231,-3.4244,-3.4267,-3.4312,-3.4348,-3.4397,-3.4443,-3.4468,-3.4503,-3.4544,-3.4604,-3.4594,-3.462,-3.4626,-3.4658,-3.4716,-3.4642,-3.4643,-3.4655,-3.4793,-3.4801,-3.4813,-3.4713,-3.4715,-3.4717,-3.479,0,-3.4242,-3.433,-3.4344,-3.4421,-3.4464,-3.4463,-3.4506,-3.4537,-3.4554,-3.4592,-3.461,-3.4653,-3.4636,-3.4651,-3.4683,-3.4702,-3.4744,-3.4697,-3.475,-3.4752,-3.4741,-3.4825,-3.4835,-3.4902,-3.4799,-3.4801,-3.4802,0,-3.4335,-3.4374,-3.4456,-3.4496,-3.4514,-3.4553,-3.4596,-3.4633,-3.4669,-3.4678,-3.4708,-3.4711,-3.476,-3.4732,-3.4801,-3.4769,-3.4791,-3.4804,-3.4807,-3.4812,-3.478,-3.4832,-3.4924,-3.4934,-3.4817,-3.4816,-3.4815,0,-3.4381,-3.4455,-3.4514,-3.4533,-3.4581,-3.4608,-3.4629,-3.4663,-3.469,-3.4728,-3.4746,-3.4788,-3.4811,-3.4844,-3.4857,-3.4836,-3.4925,-3.4898,-3.4934,-3.4933,-3.4952,-3.4951,-3.5048,-3.4967,-3.4967,-3.4967,-3.4967,0,-3.4457,-3.4507,-3.4535,-3.4571,-3.4627,-3.4642,-3.4696,-3.4716,-3.4747,-3.4786,-3.4787,-3.4824,-3.484,-3.4879,-3.489,-3.4944,-3.4955,-3.4963,-3.4966,-3.4963,-3.4962,-3.4978,-3.4973,-3.4969,-3.4969,-3.4968,-3.4968,0,-3.4518,-3.4539,-3.4603,-3.4644,-3.4655,-3.4695,-3.4729,-3.4763,-3.478,-3.483,-3.4842,-3.4868,-3.4914,-3.4931,-3.4986,-3.4993,-3.5057,-3.5055,-3.5045,-3.5046,-3.508,-3.5077,-3.5191,-3.5206,-3.5116,-3.5116,-3.5117,0,-3.4565,-3.4604,-3.4649,-3.4677,-3.4699,-3.4742,-3.4771,-3.4786,-3.4815,-3.4859,-3.4888,-3.4934,-3.4972,-3.5045,-3.5068,-3.511,-3.5109,-3.5146,-3.5115,-3.5112,-3.511,-3.5107,-3.5111,-3.5152,-3.5153,-3.5153,-3.5154,0,-3.4646,-3.4655,-3.4696,-3.4741,-3.4775,-3.4811,-3.4846,-3.4868,-3.4889,-3.4921,-3.4969,-3.4998,-3.5055,-3.5101,-3.5144,-3.5165,-3.5163,-3.5164,-3.5174,-3.5172,-3.5164,-3.5169,-3.5061,-3.5161,-3.516,-3.516,-3.5159,-3.5159,-3.4701,-3.4736,-3.4774,-3.482,-3.4848,-3.4881,-3.4915,-3.4937,-3.4978,-3.5027,-3.5033,-3.5084,-3.5119,-3.5178,-3.52,-3.5239,-3.5229,-3.5244,-3.5248,-3.5252,-3.5254,-3.5159,-3.5247,-3.5247,-3.5247,-3.5247,-3.5247,0,-3.4782,-3.4807,-3.4849,-3.4899,-3.4935,-3.4932,-3.497,-3.5,-3.5046,-3.5079,-3.5116,-3.5171,-3.5215,-3.5242,-3.5287,-3.5313,-3.5313,-3.5324,-3.5322,-3.5327,-3.5261,-3.5247,-3.5323,-3.5323,-3.5323,-3.5323,-3.5323,-3.5323,-3.4828,-3.4887,-3.49,-3.4972,-3.4996,-3.5048,-3.507,-3.51,-3.5127,-3.5188,-3.5226,-3.5244,-3.5274,-3.5321,-3.5361,-3.5368,-3.5384,-3.5396,-3.5401,-3.5339,-3.5331,-3.5324,-3.5311,-3.5399,-3.5399,-3.5464,-3.5465,-3.5465]}]]